EXS95H LEAM-EGBB

Flight info

Callsign EXS95H
Flight time N/A
Altitude 34000
Route AGIDO M192 BLN DCT MORAL DCT BEXID DCT VTB DCT RBO N867 BLV DCT BISKA P87 BELEN DCT DIDIG UP87 MOKOR UN873 OLEBA DCT ROGPU DCT DIKRO UM184 KOTEM/N0423F240 M184 HEMEL
Aircraft B738/M-SDE2E3FGHIRWXY/LB1

Departure

Time 2026-05-06 15:02
Airport Almería Airport (LEAM)

Arrival

Time N/A
Airport Birmingham Airport (EGBB)
Time Latitude Longitude Altitude Speed Heading
2026-05-06 14:36 36.84675 -2.37152 64 ft 0 kts 153°
2026-05-06 14:54 36.84673 -2.37151 69 ft 1 kts 153°
2026-05-06 14:54 36.84657 -2.37148 60 ft 4 kts 172°
2026-05-06 14:55 36.84618 -2.37133 64 ft 7 kts 141°
2026-05-06 14:55 36.84618 -2.37117 62 ft 2 kts 71°
2026-05-06 14:55 36.84624 -2.37094 67 ft 4 kts 71°
2026-05-06 14:55 36.84634 -2.37051 67 ft 7 kts 73°
2026-05-06 14:56 36.84650 -2.36975 66 ft 11 kts 90°
2026-05-06 14:56 36.84611 -2.36867 60 ft 16 kts 103°
2026-05-06 14:56 36.84633 -2.36747 60 ft 18 kts 73°
2026-05-06 14:56 36.84671 -2.36596 62 ft 18 kts 71°
2026-05-06 14:57 36.84706 -2.36453 63 ft 17 kts 72°
2026-05-06 14:57 36.84740 -2.36315 58 ft 16 kts 75°
2026-05-06 14:57 36.84772 -2.36183 63 ft 16 kts 72°
2026-05-06 14:57 36.84804 -2.36055 61 ft 15 kts 76°
2026-05-06 14:58 36.84833 -2.35932 62 ft 14 kts 73°
2026-05-06 14:58 36.84862 -2.35815 62 ft 14 kts 73°
2026-05-06 14:58 36.84889 -2.35704 61 ft 13 kts 73°
2026-05-06 14:58 36.84916 -2.35595 57 ft 13 kts 73°
2026-05-06 14:59 36.84941 -2.35490 61 ft 12 kts 73°
2026-05-06 14:59 36.84946 -2.35386 64 ft 12 kts 111°
2026-05-06 14:59 36.84883 -2.35325 61 ft 12 kts 169°
2026-05-06 14:59 36.84805 -2.35358 58 ft 12 kts 225°
2026-05-06 15:00 36.84791 -2.35401 57 ft 0 kts 253°
2026-05-06 15:00 36.84790 -2.35404 58 ft 1 kts 253°
2026-05-06 15:00 36.84789 -2.35406 58 ft 0 kts 253°
2026-05-06 15:00 36.84789 -2.35407 58 ft 0 kts 253°
2026-05-06 15:01 36.84786 -2.35420 61 ft 5 kts 253°
2026-05-06 15:01 36.84747 -2.35580 58 ft 45 kts 253°
2026-05-06 15:01 36.84595 -2.36194 55 ft 100 kts 253°
2026-05-06 15:01 36.84346 -2.37187 63 ft 140 kts 251°
2026-05-06 15:02 36.84045 -2.38452 236 ft 157 kts 251°
2026-05-06 15:02 36.83733 -2.39751 772 ft 159 kts 250°
2026-05-06 15:02 36.83386 -2.41093 1250 ft 164 kts 247°
2026-05-06 15:02 36.83038 -2.42434 1731 ft 167 kts 250°
2026-05-06 15:03 36.82677 -2.43893 1999 ft 188 kts 251°
2026-05-06 15:03 36.82268 -2.45538 2214 ft 211 kts 251°
2026-05-06 15:03 36.81810 -2.47371 2356 ft 230 kts 251°
2026-05-06 15:03 36.81046 -2.49162 2618 ft 242 kts 223°
2026-05-06 15:04 36.79591 -2.50105 3201 ft 238 kts 184°
2026-05-06 15:04 36.77974 -2.49779 3759 ft 240 kts 159°
2026-05-06 15:04 36.76388 -2.49073 4305 ft 245 kts 161°
2026-05-06 15:04 36.74755 -2.48391 4780 ft 254 kts 162°
2026-05-06 15:05 36.73020 -2.47663 5052 ft 269 kts 155°
2026-05-06 15:05 36.71527 -2.46239 5555 ft 275 kts 127°
2026-05-06 15:05 36.70764 -2.44079 6153 ft 276 kts 96°
2026-05-06 15:05 36.70950 -2.41722 6714 ft 278 kts 73°
2026-05-06 15:06 36.71535 -2.39392 7235 ft 284 kts 71°
2026-05-06 15:06 36.72142 -2.37029 7801 ft 289 kts 71°
2026-05-06 15:06 36.72718 -2.34743 8370 ft 291 kts 72°
2026-05-06 15:06 36.73274 -2.32525 8487 ft 297 kts 69°
2026-05-06 15:07 36.74325 -2.30331 8504 ft 295 kts 43°
2026-05-06 15:07 36.76025 -2.28964 8512 ft 290 kts 17°
2026-05-06 15:07 36.77979 -2.28563 8512 ft 283 kts 359°
2026-05-06 15:07 36.79727 -2.28559 8528 ft 283 kts 357°
2026-05-06 15:08 36.81725 -2.28597 8803 ft 295 kts 356°
2026-05-06 15:08 36.83855 -2.28642 8969 ft 316 kts 357°
2026-05-06 15:08 36.86122 -2.28678 9123 ft 336 kts 357°
2026-05-06 15:08 36.88525 -2.28709 9261 ft 354 kts 358°
2026-05-06 15:09 36.91032 -2.28731 9581 ft 366 kts 358°
2026-05-06 15:09 36.93601 -2.28748 10116 ft 370 kts 358°
2026-05-06 15:09 36.96183 -2.28765 10659 ft 373 kts 358°
2026-05-06 15:09 36.98793 -2.28783 11224 ft 376 kts 358°
2026-05-06 15:10 37.01419 -2.28845 11740 ft 379 kts 352°
2026-05-06 15:10 37.03970 -2.29761 12281 ft 378 kts 329°
2026-05-06 15:10 37.06035 -2.31691 12896 ft 376 kts 312°
2026-05-06 15:10 37.07556 -2.34339 13457 ft 377 kts 297°
2026-05-06 15:11 37.08809 -2.37257 14027 ft 380 kts 296°
2026-05-06 15:11 37.10032 -2.40202 14550 ft 383 kts 296°
2026-05-06 15:11 37.11269 -2.43176 15141 ft 386 kts 296°
2026-05-06 15:11 37.12355 -2.45757 15669 ft 388 kts 296°
2026-05-06 15:12 37.13625 -2.48745 16233 ft 391 kts 296°
2026-05-06 15:12 37.14914 -2.51761 16802 ft 394 kts 296°
2026-05-06 15:12 37.16217 -2.54798 17364 ft 396 kts 296°
2026-05-06 15:12 37.17528 -2.57854 17877 ft 400 kts 296°
2026-05-06 15:13 37.18855 -2.60946 18409 ft 403 kts 297°
2026-05-06 15:13 37.20539 -2.63792 18890 ft 411 kts 314°
2026-05-06 15:13 37.22715 -2.66072 19418 ft 414 kts 318°
2026-05-06 15:13 37.24972 -2.68330 19897 ft 416 kts 318°
2026-05-06 15:14 37.27263 -2.70634 20339 ft 418 kts 317°
2026-05-06 15:14 37.29495 -2.72901 20757 ft 421 kts 317°
2026-05-06 15:14 37.31804 -2.75268 21205 ft 423 kts 316°
2026-05-06 15:14 37.33790 -2.77314 21554 ft 425 kts 316°
2026-05-06 15:15 37.36081 -2.79684 21950 ft 428 kts 316°
2026-05-06 15:15 37.38384 -2.82070 22358 ft 430 kts 316°
2026-05-06 15:15 37.40699 -2.84467 22780 ft 432 kts 316°
2026-05-06 15:15 37.43025 -2.86876 23129 ft 435 kts 316°
2026-05-06 15:16 37.45366 -2.89297 23496 ft 438 kts 316°
2026-05-06 15:16 37.47736 -2.91749 23798 ft 440 kts 316°
2026-05-06 15:16 37.50104 -2.94202 24099 ft 443 kts 315°
2026-05-06 15:16 37.52159 -2.96332 24388 ft 444 kts 315°
2026-05-06 15:17 37.54553 -2.98816 24688 ft 446 kts 315°
2026-05-06 15:17 37.56954 -3.01311 24970 ft 449 kts 315°
2026-05-06 15:17 37.59380 -3.03835 25269 ft 451 kts 315°
2026-05-06 15:17 37.61796 -3.06356 25578 ft 452 kts 315°
2026-05-06 15:18 37.64223 -3.08892 25888 ft 454 kts 315°
2026-05-06 15:18 37.66652 -3.11432 26191 ft 455 kts 315°
2026-05-06 15:18 37.69096 -3.13989 26533 ft 455 kts 315°
2026-05-06 15:18 37.71533 -3.16540 26988 ft 453 kts 315°
2026-05-06 15:19 37.73956 -3.19077 27474 ft 450 kts 314°
2026-05-06 15:19 37.76361 -3.21589 27943 ft 448 kts 314°
2026-05-06 15:19 37.78762 -3.24094 28324 ft 448 kts 314°
2026-05-06 15:19 37.81162 -3.26598 28701 ft 447 kts 314°
2026-05-06 15:20 37.83560 -3.29102 29119 ft 446 kts 314°
2026-05-06 15:20 37.85944 -3.31595 29515 ft 445 kts 314°
2026-05-06 15:20 37.88300 -3.34062 29920 ft 444 kts 313°
2026-05-06 15:20 37.90359 -3.36220 30202 ft 443 kts 313°
2026-05-06 15:21 37.92730 -3.38708 30534 ft 442 kts 313°
2026-05-06 15:21 37.95086 -3.41182 30858 ft 441 kts 313°
2026-05-06 15:21 37.97457 -3.43674 31174 ft 440 kts 313°
2026-05-06 15:21 37.99498 -3.45821 31435 ft 440 kts 313°
2026-05-06 15:22 38.01818 -3.48263 31737 ft 439 kts 312°
2026-05-06 15:22 38.04159 -3.50730 32052 ft 438 kts 312°
2026-05-06 15:22 38.06511 -3.53210 32355 ft 437 kts 312°
2026-05-06 15:22 38.08538 -3.55349 32617 ft 437 kts 312°
2026-05-06 15:23 38.10870 -3.57811 32914 ft 436 kts 312°
2026-05-06 15:23 38.13330 -3.60111 33163 ft 447 kts 323°
2026-05-06 15:23 38.16248 -3.61641 33428 ft 463 kts 337°
2026-05-06 15:23 38.19460 -3.62274 33715 ft 478 kts 353°
2026-05-06 15:24 38.21687 -3.62170 33896 ft 483 kts 356°
2026-05-06 15:24 38.25035 -3.61829 34128 ft 484 kts 358°
2026-05-06 15:24 38.28388 -3.61422 34337 ft 484 kts 359°
2026-05-06 15:24 38.31743 -3.61010 34598 ft 483 kts 358°
2026-05-06 15:25 38.35088 -3.60621 34883 ft 480 kts 358°
2026-05-06 15:25 38.38420 -3.60260 35138 ft 479 kts 358°
2026-05-06 15:25 38.41729 -3.59922 35337 ft 478 kts 358°
2026-05-06 15:25 38.45057 -3.59595 35545 ft 477 kts 358°
2026-05-06 15:26 38.47918 -3.59318 35720 ft 477 kts 358°
2026-05-06 15:26 38.51222 -3.58999 35931 ft 476 kts 358°
2026-05-06 15:26 38.54526 -3.58679 36146 ft 475 kts 358°
2026-05-06 15:26 38.57816 -3.58359 36360 ft 474 kts 358°
2026-05-06 15:27 38.61084 -3.58039 36556 ft 473 kts 358°
2026-05-06 15:27 38.64369 -3.57718 36730 ft 473 kts 358°
2026-05-06 15:27 38.67656 -3.57395 36910 ft 472 kts 358°
2026-05-06 15:27 38.70922 -3.57073 37128 ft 471 kts 358°
2026-05-06 15:28 38.73745 -3.56795 37282 ft 470 kts 358°
2026-05-06 15:28 38.76975 -3.56476 37441 ft 470 kts 358°
2026-05-06 15:28 38.80230 -3.56156 37605 ft 470 kts 358°
2026-05-06 15:28 38.83494 -3.55834 37781 ft 469 kts 358°
2026-05-06 15:29 38.86305 -3.55556 37944 ft 468 kts 358°
2026-05-06 15:29 38.89549 -3.55235 38103 ft 467 kts 358°
2026-05-06 15:29 38.92789 -3.54915 38268 ft 467 kts 358°
2026-05-06 15:29 38.96027 -3.54594 38409 ft 466 kts 359°
2026-05-06 15:30 38.99252 -3.54274 38538 ft 466 kts 359°
2026-05-06 15:30 39.02485 -3.53954 38648 ft 465 kts 359°
2026-05-06 15:30 39.05722 -3.53635 38734 ft 465 kts 359°
2026-05-06 15:31 39.11739 -3.53042 38901 ft 465 kts 359°
2026-05-06 15:31 39.18189 -3.52404 39093 ft 465 kts 359°
2026-05-06 15:32 39.24215 -3.51807 39244 ft 464 kts 359°
2026-05-06 15:32 39.27436 -3.51488 39318 ft 464 kts 359°
2026-05-06 15:32 39.33873 -3.50848 39463 ft 464 kts 359°
2026-05-06 15:33 39.40307 -3.50207 39620 ft 464 kts 359°
2026-05-06 15:33 39.46747 -3.49565 39752 ft 463 kts 359°
2026-05-06 15:34 39.49951 -3.49245 39858 ft 462 kts 359°
2026-05-06 15:34 39.53165 -3.48924 39896 ft 462 kts 359°
2026-05-06 15:34 39.59573 -3.48282 39912 ft 463 kts 359°
2026-05-06 15:35 39.65961 -3.47635 39921 ft 464 kts 359°
2026-05-06 15:35 39.72407 -3.46980 39916 ft 465 kts 359°
2026-05-06 15:36 39.78884 -3.46291 39916 ft 468 kts
2026-05-06 15:36 39.85347 -3.45114 39924 ft 471 kts
2026-05-06 15:37 39.91820 -3.43733 39916 ft 472 kts
2026-05-06 15:37 39.98333 -3.42371 39929 ft 473 kts
2026-05-06 15:38 40.04418 -3.41138 39928 ft 474 kts
2026-05-06 15:38 40.10962 -3.39826 39930 ft 475 kts
2026-05-06 15:39 40.17469 -3.38521 39928 ft 476 kts
2026-05-06 15:39 40.24036 -3.37198 39933 ft 477 kts
2026-05-06 15:40 40.30621 -3.35868 39931 ft 478 kts
2026-05-06 15:40 40.37173 -3.34542 39935 ft 479 kts
2026-05-06 15:41 40.43766 -3.33205 39940 ft 479 kts
2026-05-06 15:41 40.50366 -3.31864 39940 ft 479 kts
2026-05-06 15:42 40.56947 -3.30524 39927 ft 479 kts
2026-05-06 15:42 40.63541 -3.29179 39929 ft 478 kts
2026-05-06 15:43 40.70110 -3.27836 39937 ft 478 kts
2026-05-06 15:43 40.76637 -3.26499 39927 ft 477 kts
2026-05-06 15:44 40.82757 -3.25244 39931 ft 477 kts
2026-05-06 15:44 40.89314 -3.23858 39927 ft 477 kts
2026-05-06 15:45 40.95422 -3.22477 39935 ft 477 kts
2026-05-06 15:45 41.01959 -3.21002 39932 ft 477 kts
2026-05-06 15:46 41.08503 -3.19535 39938 ft 476 kts
2026-05-06 15:46 41.15035 -3.18057 39946 ft 476 kts
2026-05-06 15:47 41.21530 -3.16583 39943 ft 476 kts
2026-05-06 15:47 41.28055 -3.15100 39944 ft 476 kts
2026-05-06 15:48 41.34133 -3.13717 39944 ft 475 kts
2026-05-06 15:48 41.40654 -3.12229 39943 ft 475 kts
2026-05-06 15:49 41.47134 -3.10748 39940 ft 475 kts
2026-05-06 15:49 41.53655 -3.09260 39943 ft 474 kts
2026-05-06 15:50 41.60162 -3.07791 39944 ft 474 kts
2026-05-06 15:50 41.66664 -3.06318 39941 ft 473 kts
2026-05-06 15:51 41.73128 -3.04849 39946 ft 473 kts
2026-05-06 15:51 41.79623 -3.03361 39944 ft 472 kts
2026-05-06 15:52 41.85629 -3.01978 39950 ft 472 kts
2026-05-06 15:52 41.92104 -3.00484 39960 ft 472 kts
2026-05-06 15:53 41.98566 -2.98990 39976 ft 471 kts
2026-05-06 15:53 42.05020 -2.97496 39967 ft 471 kts
2026-05-06 15:54 42.11041 -2.96100 39981 ft 470 kts
2026-05-06 15:54 42.17462 -2.94607 39975 ft 470 kts
2026-05-06 15:55 42.23908 -2.93106 39982 ft 470 kts
2026-05-06 15:55 42.30351 -2.91603 39981 ft 469 kts
2026-05-06 15:56 42.36772 -2.90100 39993 ft 468 kts
2026-05-06 15:56 42.43170 -2.88601 39998 ft 467 kts
2026-05-06 15:57 42.49160 -2.88104 40011 ft 461 kts 354°
2026-05-06 15:57 42.55569 -2.88498 40044 ft 461 kts 353°
2026-05-06 15:58 42.61976 -2.88923 40200 ft 461 kts 354°
2026-05-06 15:58 42.68393 -2.89286 40355 ft 462 kts 354°
2026-05-06 15:59 42.74869 -2.89621 40501 ft 462 kts 354°
2026-05-06 15:59 42.81304 -2.89949 40607 ft 463 kts 354°
2026-05-06 16:00 42.87727 -2.90278 40649 ft 463 kts 354°
2026-05-06 16:00 42.94176 -2.90612 40617 ft 464 kts 354°
2026-05-06 16:01 43.00645 -2.90948 40504 ft 464 kts 355°
2026-05-06 16:01 43.07085 -2.91282 40367 ft 464 kts 355°
2026-05-06 16:02 43.10324 -2.91451 40044 ft 464 kts 355°
2026-05-06 16:02 43.13550 -2.91619 40040 ft 464 kts 355°
2026-05-06 16:02 43.19999 -2.91955 40036 ft 464 kts 355°
2026-05-06 16:03 43.25369 -2.92236 40048 ft 463 kts 355°
2026-05-06 16:03 43.31820 -2.92189 40041 ft 466 kts